Temp
-12 -12 -12 -12 -11 -11 -11 -11 -11 -11 -12 -11 -11 -11 -11 -11 -12 -12 -12 -12 -12 -13 -13 -13 -13 -13 -13 -13 -13 -14 -14 -14 -14 -15 -15 -15 -16 -16
-12 -12 -12 -12 -12 -12 -12 -11 -11 -11 -12 -12 -12 -11 -12 -12 -12 -12 -12 -12 -13 -13 -13 -13 -13 -13 -13 -13 -13 -14 -14 -14 -14 -14 -15 -16 -16 -16
-13 -12 -13 -12 -12 -12 -12 -12 -12 -12 -12 -12 -12 -12 -12 -12 -12 -12 -13 -13 -13 -13 -13 -13 -13 -13 -13 -14 -14 -14 -14 -14 -14 -14 -15 -15 -16 -16
-13 -13 -13 -13 -13 -12 -12 -12 -12 -12 -12 -12 -12 -12 -12 -12 -13 -13 -13 -13 -13 -13 -13 -13 -13 -13 -14 -14 -13 -14 -14 -14 -14 -15 -15 -15 -16 -16
-13 -13 -13 -14 -13 -13 -13 -13 -13 -12 -12 -12 -12 -12 -12 -13 -13 -14 -13 -13 -13 -13 -14 -14 -13 -14 -14 -14 -14 -14 -14 -14 -15 -15 -15 -16 -16 -16
-13 -13 -13 -14 -13 -13 -13 -13 -13 -13 -13 -13 -13 -13 -13 -13 -13 -14 -14 -14 -13 -13 -14 -14 -14 -14 -14 -14 -14 -14 -14 -15 -15 -15 -16 -16 -16 -16
-14 -14 -13 -14 -14 -14 -13 -13 -13 -13 -13 -13 -13 -13 -13 -13 -14 -14 -14 -14 -14 -14 -14 -14 -14 -15 -15 -14 -15 -15 -15 -15 -15 -16 -16 -16 -16 -17
-14 -14 -15 -14 -14 -14 -14 -14 -14 -14 -13 -13 -14 -14 -14 -14 -14 -14 -14 -14 -14 -14 -14 -14 -14 -14 -14 -15 -15 -15 -15 -16 -16 -16 -16 -16 -17 -17
-14 -14 -14 -14 -14 -14 -14 -14 -14 -14 -14 -14 -14 -14 -14 -14 -14 -14 -14 -14 -14 -14 -15 -15 -15 -15 -15 -15 -15 -16 -16 -16 -16 -16 -16 -17 -17 -17
-15 -15 -15 -15 -15 -15 -15 -15 -14 -14 -14 -14 -14 -14 -14 -14 -14 -14 -15 -15 -15 -15 -15 -15 -15 -15 -15 -16 -16 -16 -16 -16 -16 -17 -17 -17 -17 -18
-16 -15 -15 -15 -15 -15 -15 -15 -15 -14 -14 -14 -14 -14 -14 -14 -15 -15 -15 -15 -15 -15 -15 -15 -16 -16 -16 -16 -16 -16 -17 -17 -17 -17 -17 -18 -18 -18
-16 -15 -15 -15 -16 -15 -15 -15 -15 -15 -15 -15 -15 -15 -15 -15 -15 -15 -16 -15 -16 -15 -16 -15 -16 -16 -16 -17 -17 -17 -17 -17 -17 -18 -18 -18 -19 -19
-16 -16 -16 -16 -16 -16 -16 -15 -15 -15 -15 -15 -15 -15 -15 -15 -16 -16 -16 -16 -16 -16 -16 -16 -16 -16 -17 -17 -17 -17 -18 -18 -18 -18 -18 -19 -19 -19
-17 -16 -16 -16 -16 -16 -16 -16 -16 -16 -15 -15 -15 -16 -16 -16 -16 -16 -16 -16 -16 -16 -16 -17 -17 -17 -17 -17 -18 -18 -18 -18 -19 -19 -19 -20 -20 -20
-17 -17 -17 -17 -17 -16 -16 -16 -16 -16 -16 -16 -16 -16 -16 -16 -16 -16 -17 -17 -17 -17 -17 -17 -18 -18 -18 -18 -18 -19 -19 -19 -19 -19 -20 -20 -20 -21
-18 -18 -18 -18 -17 -17 -17 -17 -17 -17 -17 -17 -17 -17 -17 -17 -17 -17 -17 -17 -17 -17 -18 -18 -18 -18 -18 -19 -19 -19 -19 -19 -20 -20 -20 -21 -21 -21
-19 -19 -18 -18 -18 -18 -17 -17 -17 -17 -17 -17 -17 -17 -17 -17 -17 -18 -18 -18 -18 -18 -19 -18 -18 -19 -19 -19 -20 -20 -20 -20 -20 -21 -21 -21 -21 -22
-19 -19 -19 -19 -18 -18 -18 -18 -18 -18 -18 -18 -18 -18 -18 -18 -18 -18 -18 -18 -19 -19 -19 -19 -19 -20 -20 -20 -20 -20 -20 -21 -21 -21 -21 -22 -22 -22
-20 -20 -19 -19 -19 -19 -19 -19 -19 -19 -19 -19 -19 -19 -19 -19 -19 -19 -19 -19 -19 -19 -19 -20 -20 -20 -20 -20 -20 -21 -21 -21 -22 -22 -22 -22 -22 -22
-20 -19 -19 -19 -19 -19 -19 -19 -19 -19 -19 -19 -19 -19 -20 -20 -20 -20 -20 -20 -20 -20 -21 -21 -21 -21 -21 -21 -21 -21 -21 -22 -22 -22 -22 -22 -23 -23
-20 -20 -19 -19 -19 -19 -19 -20 -20 -20 -20 -20 -20 -20 -20 -20 -20 -20 -20 -21 -21 -21 -21 -21 -21 -21 -21 -21 -21 -22 -22 -22 -22 -22 -23 -23 -23 -23
-20 -20 -20 -20 -20 -20 -20 -20 -20 -20 -20 -20 -21 -21 -21 -21 -21 -21 -21 -21 -21 -21 -21 -22 -22 -22 -22 -22 -22 -22 -23 -23 -23 -23 -23 -23 -23 -24
-21 -21 -20 -20 -20 -20 -20 -20 -20 -21 -21 -21 -21 -21 -21 -21 -22 -22 -22 -22 -22 -22 -22 -22 -22 -22 -22 -22 -23 -23 -23 -23 -23 -23 -24 -24 -24 -24
Height
5761 5765 5769 5772 5776 5779 5783 5786 5788 5789 5790 5791 5793 5794 5794 5795 5795 5795 5794 5793 5794 5793 5791 5790 5788 5786 5784 5782 5781 5778 5776 5773 5771 5768 5765 5761 5757 5754
5750 5754 5757 5761 5764 5768 5772 5775 5777 5779 5782 5782 5783 5785 5784 5785 5785 5785 5785 5785 5784 5783 5782 5780 5779 5778 5776 5775 5772 5769 5766 5764 5761 5758 5755 5752 5748 5744
5738 5744 5746 5749 5754 5757 5761 5764 5766 5768 5770 5773 5775 5775 5774 5775 5775 5776 5776 5775 5774 5773 5773 5772 5771 5769 5767 5765 5763 5760 5757 5754 5751 5748 5745 5743 5739 5735
5726 5732 5735 5739 5743 5746 5750 5754 5755 5757 5760 5761 5763 5765 5766 5765 5765 5765 5765 5766 5765 5763 5763 5763 5762 5759 5757 5755 5753 5750 5747 5744 5741 5738 5734 5731 5728 5724
5714 5719 5724 5728 5732 5735 5739 5742 5744 5746 5749 5750 5752 5754 5755 5756 5756 5756 5756 5754 5754 5754 5753 5753 5750 5748 5747 5745 5742 5740 5737 5734 5731 5728 5724 5721 5716 5713
5702 5707 5712 5715 5722 5724 5727 5731 5734 5736 5739 5740 5742 5743 5744 5745 5746 5748 5747 5746 5745 5744 5744 5744 5741 5739 5737 5734 5732 5729 5726 5723 5720 5717 5713 5709 5706 5702
5688 5692 5698 5704 5707 5712 5716 5719 5723 5726 5728 5730 5731 5733 5734 5735 5735 5735 5735 5735 5735 5734 5733 5732 5730 5729 5725 5723 5720 5717 5715 5712 5709 5706 5702 5699 5695 5690
5673 5678 5684 5689 5694 5700 5705 5708 5712 5714 5716 5719 5720 5722 5723 5724 5724 5724 5725 5725 5726 5724 5721 5721 5718 5717 5714 5712 5709 5706 5703 5700 5698 5694 5691 5687 5683 5679
5661 5667 5672 5677 5682 5687 5692 5696 5698 5702 5705 5706 5709 5711 5711 5712 5712 5713 5714 5714 5714 5713 5711 5710 5707 5705 5702 5700 5697 5694 5692 5689 5686 5682 5679 5675 5671 5667
5647 5654 5660 5665 5670 5674 5678 5682 5686 5689 5692 5694 5695 5697 5698 5699 5700 5700 5700 5701 5702 5701 5699 5698 5696 5694 5691 5688 5686 5683 5679 5676 5673 5670 5666 5663 5660 5656
5632 5640 5646 5652 5657 5660 5664 5668 5673 5677 5678 5680 5683 5684 5685 5686 5687 5687 5688 5688 5688 5687 5686 5685 5684 5681 5679 5676 5673 5670 5667 5664 5661 5658 5654 5651 5648 5645
5618 5624 5631 5638 5642 5647 5652 5656 5660 5663 5665 5667 5668 5670 5672 5672 5673 5675 5675 5675 5675 5674 5673 5671 5670 5668 5666 5663 5660 5657 5654 5651 5648 5646 5642 5640 5637 5634
5603 5610 5617 5623 5627 5632 5637 5642 5646 5648 5650 5652 5654 5657 5658 5659 5660 5661 5661 5661 5660 5660 5659 5657 5656 5654 5653 5651 5647 5644 5641 5639 5636 5634 5631 5629 5627 5624
5588 5595 5601 5607 5612 5617 5621 5627 5630 5633 5635 5638 5640 5642 5644 5645 5646 5646 5647 5646 5646 5646 5644 5644 5643 5640 5639 5637 5635 5632 5630 5628 5625 5623 5621 5618 5616 5614
5573 5580 5585 5591 5597 5602 5607 5611 5614 5618 5620 5623 5626 5627 5629 5630 5631 5632 5632 5631 5631 5631 5630 5629 5628 5627 5625 5624 5622 5620 5618 5616 5614 5612 5609 5607 5604 5602
5558 5565 5570 5575 5582 5587 5591 5596 5599 5602 5605 5608 5610 5612 5614 5615 5616 5616 5617 5616 5617 5616 5616 5615 5614 5613 5613 5611 5610 5608 5606 5605 5602 5600 5597 5594 5592 5589
5545 5550 5555 5560 5567 5571 5576 5580 5583 5587 5590 5593 5595 5597 5598 5599 5600 5601 5601 5602 5602 5601 5601 5601 5601 5600 5599 5599 5597 5596 5593 5591 5589 5587 5585 5582 5579 5577
5530 5535 5541 5547 5552 5556 5561 5565 5569 5572 5575 5577 5579 5580 5582 5583 5585 5586 5586 5587 5587 5587 5587 5587 5587 5587 5586 5585 5583 5582 5580 5578 5576 5574 5571 5569 5565 5563
5515 5522 5527 5532 5537 5542 5546 5549 5553 5555 5558 5560 5563 5565 5566 5568 5570 5571 5572 5573 5573 5573 5573 5574 5573 5573 5572 5571 5571 5568 5566 5563 5561 5559 5556 5554 5550 5546
5501 5507 5513 5518 5523 5527 5531 5535 5539 5541 5543 5546 5548 5551 5553 5555 5557 5558 5559 5560 5560 5560 5560 5559 5559 5558 5559 5557 5555 5553 5550 5549 5546 5543 5540 5538 5534 5530
5487 5493 5498 5504 5509 5513 5518 5522 5525 5528 5531 5533 5536 5538 5540 5542 5543 5544 5545 5546 5546 5546 5545 5544 5545 5544 5543 5542 5540 5537 5535 5533 5530 5527 5524 5521 5517 5514
5473 5478 5484 5489 5495 5500 5504 5508 5512 5515 5518 5521 5523 5525 5526 5528 5529 5530 5530 5531 5531 5531 5530 5529 5529 5528 5526 5525 5523 5521 5518 5516 5513 5510 5507 5504 5500 5497
5460 5465 5470 5475 5480 5485 5490 5494 5497 5501 5503 5506 5509 5510 5512 5513 5514 5515 5515 5515 5515 5514 5514 5513 5512 5510 5508 5507 5505 5503 5501 5498 5495 5492 5488 5484 5481 5476
Wind_Speed
51 51 50 50 51 51 49 47 44 41 40 39 38 38 38 38 38 39 39 38 37 37 38 38 38 39 39 41 42 43 44 45 44 44 43 44 45 45
54 53 49 49 49 49 48 47 44 40 39 40 40 40 39 39 40 39 39 38 38 38 38 39 39 40 40 41 43 44 45 46 47 46 44 43 45 46
52 51 48 47 48 46 46 45 45 42 40 40 39 40 40 40 39 38 38 38 38 38 39 39 39 39 41 43 44 45 46 46 46 46 45 45 45 47
52 47 48 49 47 46 46 45 44 43 41 41 40 39 38 39 38 38 39 37 38 39 41 40 40 41 43 44 45 45 45 46 47 46 46 48 48 46
45 48 53 50 47 46 46 44 44 43 43 40 41 41 39 36 37 38 38 40 40 41 42 40 43 43 44 44 45 45 46 47 47 47 48 49 48 48
52 53 56 49 48 44 44 44 44 43 42 41 41 40 40 40 38 38 39 42 43 45 42 40 42 44 44 45 45 46 47 47 48 48 47 48 50 50
53 53 64 46 44 44 48 45 43 44 43 42 41 41 41 40 40 41 41 43 43 44 44 42 43 45 45 45 46 47 48 48 47 47 48 49 49 47
67 62 54 50 48 49 48 46 46 45 44 43 42 41 40 42 42 43 43 43 44 45 46 44 46 46 46 46 47 47 48 48 48 48 49 49 47 46
64 61 59 55 53 52 50 49 47 46 45 45 44 43 43 44 45 44 44 44 45 44 45 46 47 47 48 48 48 48 48 48 48 49 49 48 46 45
64 64 60 59 57 55 52 50 50 48 47 46 46 46 46 46 46 46 47 47 46 46 47 47 47 47 49 48 48 48 48 47 47 47 48 46 45 43
65 65 64 61 58 55 54 53 52 50 49 49 48 48 48 48 47 48 48 48 49 48 49 49 48 49 49 48 48 48 47 47 47 44 43 43 44 43
66 65 63 62 60 58 56 55 54 52 51 52 52 51 50 50 50 49 50 50 50 51 51 51 50 49 49 48 48 48 47 45 42 42 43 42 39 35
69 67 63 60 60 59 58 57 56 56 55 54 53 53 52 51 51 51 52 52 52 52 51 51 50 50 50 47 45 45 45 42 40 39 39 36 35 34
71 69 67 64 61 60 60 58 58 57 57 56 54 54 52 52 52 53 53 53 53 52 51 50 51 51 49 46 44 42 40 39 38 36 35 35 35 34
69 69 68 66 64 63 61 61 59 58 58 56 54 54 53 54 54 53 54 54 53 52 52 52 52 50 47 45 43 40 39 38 36 36 37 36 36 37
68 69 67 67 66 62 62 60 58 58 57 56 55 55 55 54 54 55 54 53 53 53 53 51 48 47 46 43 41 39 39 38 38 39 40 40 40 42
63 64 65 65 62 61 60 59 58 56 56 57 56 56 56 57 55 55 54 54 53 51 49 47 46 46 43 41 41 42 43 43 43 43 45 45 45 47
58 62 60 59 59 58 58 58 57 56 57 58 58 56 55 54 52 52 51 51 51 49 46 46 45 45 44 45 46 46 46 46 46 49 49 51 52 52
61 62 60 59 59 59 60 59 57 53 51 51 50 50 49 48 48 47 46 44 43 44 45 45 48 48 49 49 49 49 49 49 50 52 53 55 56 58
52 53 52 51 49 45 45 48 49 47 46 46 47 45 43 43 43 43 42 42 44 44 46 47 48 49 48 49 50 52 52 54 54 55 57 59 60 61
59 56 54 54 51 53 53 52 48 48 48 46 44 43 43 44 45 44 45 46 47 47 47 51 52 53 54 55 53 55 55 55 56 59 60 61 62 61
56 55 54 54 52 55 53 52 53 54 54 51 49 48 47 48 49 49 50 51 53 53 54 55 55 56 57 58 60 57 57 59 62 64 63 62 63 64
51 50 52 54 54 55 54 51 51 55 55 52 51 52 52 51 50 52 55 58 57 55 55 58 60 61 61 61 61 62 65 66 65 65 67 68 70 69
Wind_Direction
242 242 240 240 244 245 249 251 252 255 257 259 262 265 268 269 270 273 273 276 278 279 279 279 280 284 286 288 292 295 296 296 299 300 303 302 306 307
241 242 241 242 243 246 248 250 251 251 253 258 262 266 267 268 270 273 273 277 277 278 279 281 283 285 288 290 292 294 294 298 301 302 304 305 303 305
238 241 242 244 244 247 249 250 252 252 252 255 259 263 266 269 269 270 272 273 275 277 279 281 284 287 289 290 292 294 297 298 300 302 302 302 303 303
239 239 242 244 244 247 248 249 252 254 256 258 261 262 262 265 267 268 270 272 273 275 278 282 284 285 287 290 292 295 296 297 299 303 303 303 305 304
236 241 241 243 245 243 246 247 250 253 257 260 263 265 263 262 261 264 269 272 273 275 278 285 286 286 288 289 291 295 296 298 300 301 303 303 304 306
234 239 239 234 241 240 243 246 249 253 258 261 263 265 265 263 261 262 261 267 272 275 278 280 284 285 287 288 290 293 295 297 299 301 302 303 302 304
232 230 233 240 243 245 245 247 251 254 258 260 261 261 263 264 264 265 268 270 273 278 281 285 286 285 287 289 290 292 294 297 298 299 301 301 301 302
231 236 243 243 244 246 247 249 252 256 259 261 261 263 263 264 264 265 267 270 275 278 282 285 286 286 287 287 289 292 294 295 296 298 299 301 299 298
235 237 241 242 242 244 247 249 253 256 259 261 263 264 263 264 267 269 269 271 273 277 281 282 283 285 286 287 289 291 293 294 295 297 299 298 297 293
236 238 239 241 242 244 245 248 252 255 258 260 263 264 266 266 266 269 270 274 276 277 279 281 283 284 283 286 289 290 291 292 294 297 297 296 295 291
236 238 238 240 243 244 247 250 253 255 257 260 262 264 265 266 268 269 272 274 277 278 279 281 282 281 284 286 287 288 291 293 295 295 294 294 292 291
236 237 238 241 243 246 248 251 253 255 257 259 261 263 264 266 268 270 272 273 275 277 279 281 281 282 283 285 287 288 292 294 293 295 293 292 291 291
236 239 241 242 245 247 249 251 253 255 257 259 260 262 264 265 267 269 271 273 275 277 277 278 278 280 282 283 285 289 291 292 290 288 290 288 291 292
236 239 242 244 245 247 249 252 254 256 257 258 260 260 262 264 266 269 270 272 274 276 276 276 278 279 281 282 287 288 287 287 285 285 286 290 291 288
234 238 241 244 245 247 250 253 254 255 257 258 259 261 262 264 267 267 269 271 272 271 273 275 277 278 280 283 285 284 283 282 282 285 286 290 289 286
237 239 241 244 247 250 250 252 253 254 255 257 259 260 262 263 264 267 268 268 269 271 273 274 275 276 280 281 280 277 279 280 284 286 286 285 284 284
241 242 243 246 246 248 250 251 251 253 254 257 258 259 261 263 264 265 267 268 270 269 268 270 273 274 276 275 274 273 277 281 283 287 289 286 284 285
239 242 245 246 247 248 249 251 253 255 256 258 259 260 260 261 263 265 264 265 267 266 266 270 271 273 271 270 272 273 278 281 282 285 286 284 285 286
240 240 244 247 249 249 251 252 252 252 250 252 256 258 258 259 259 260 260 262 265 267 269 271 270 272 270 270 274 277 278 279 282 284 284 284 285 285
228 235 234 236 239 242 239 243 245 247 247 250 253 251 251 253 256 259 261 261 263 266 269 271 271 272 272 272 275 278 279 280 282 282 282 284 284 284
231 234 229 233 238 240 240 240 243 240 243 245 248 252 253 257 259 260 260 259 262 265 268 272 273 273 275 275 275 278 281 282 283 285 284 285 283 282
227 228 230 231 234 232 236 241 241 241 242 244 252 255 259 261 261 262 263 263 267 272 270 268 271 273 275 276 277 278 280 281 282 283 280 284 286 287
227 230 230 230 232 235 236 236 237 237 237 245 248 252 257 258 259 261 262 266 266 266 264 265 267 271 273 275 276 274 275 277 279 280 282 284 286 284